Location: Unspecified
(41.5000°N, 0.0000°E)
Time: 18:56:58
(UTC+00:00)

deb Explorer IX - Pass Details

Date: 24 June 2019
Orbit: 539 x 1112 km, 38.8° (Epoch: 21 July)

Event Time Altitude Azimuth Distance (km) Brightness Sun altitude
Rises 14:20:26 0° 257° (WSW) 3,792 ? 56.1°
Reaches altitude 10° 14:23:04 10° 255° (WSW) 2,890 ? 55.6°
Maximum altitude 14:30:14 70° 173° (S) 1,169 ? 54.3°
Drops below altitude 10° 14:37:32 10° 92° (E) 2,949 ? 53.0°
Sets 14:40:16 0° 90° (E) 3,873 ? 52.6°
